Regional Weather Roundup
Issued by NWS Lake Charles, LA

Home | Current Version | Previous Version | Text Only | Print | Product List | Glossary On
Versions: 1 2 3 4 5 6 7 8 9 10 11 12 13 14 15 16 17 18 19 20 21 22 23 24 25 26 27 28 29 30 31 32 33 34 35 36 37 38 39 40 41 42 43 44 45 46 47 48 49 50
000
ASUS44 KLCH 180510
RWRLCH
RWRLCH
REGIONAL WEATHER ROUNDUP
NATIONAL WEATHER SERVICE LAKE CHARLES LA
1100 PM CST WED DEC 17 2014

Note: "fair" indicates few or no clouds below 12,000 feet with no
significant weather and/or obstructions to visibility.


ACROSS SOUTHEAST TEXAS

CITY           SKY/WX    TMP DP  RH WIND       PRES   REMARKS
BEAUMONT       MOCLDY    58  51  78 E7        30.13F
BEAUMONT CITY  CLOUDY    56  50  79 SE6       30.14S
ORANGE         CLOUDY    56  48  74 E6        30.16R
JASPER         CLOUDY    52  45  76 CALM      30.18R
$$

ACROSS CENTRAL LOUISIANA

CITY           SKY/WX    TMP DP  RH WIND       PRES   REMARKS
LEESVILLE      CLOUDY    50  42  74 VRB5      30.16R
FULLERTON        N/A     51  42  71 CALM      30.14S
ALEXANDRIA INT CLOUDY    49  42  77 E5        30.17S
ESLER FIELD    CLOUDY    47  43  86 CALM      30.19S
DERIDDER       MOCLDY    51  43  73 CALM      30.18R
OAKDALE        PTCLDY    43  41  95 CALM      30.18R
OPELOUSAS        N/A     50  40  69 E3        30.17S
$$

ACROSS SOUTHWEST AND SOUTH CENTRAL LOUISIANA

CITY           SKY/WX    TMP DP  RH WIND       PRES   REMARKS
SULPHUR        MOCLDY    52  48  84 CALM      30.16F
LAKE CHARLES   PTCLDY    50  45  83 CALM      30.15S
CHENNAULT INT  PTCLDY    49  44  82 CALM      30.16S
CAMERON PHI    MOCLDY    61  54  77 SE12      30.17S
DEQUINCY         N/A     50  45  81 E3        30.15F
JENNINGS         N/A     50  43  79 CALM      30.17S
LAFAYETTE      PTCLDY    52  41  66 CALM      30.17S
NEW IBERIA     MOCLDY    51  43  74 E6        30.18S
ABBEVILLE        N/A     50  44  78 CALM      30.18R
PATTERSON      CLOUDY    52  45  76 E5        30.19R
SALT POINT       N/A     56  46  69 E5        30.16S
$$

SELECTED SITES ACROSS THE REGION

CITY           SKY/WX    TMP DP  RH WIND       PRES   REMARKS
HOUSTON BUSH   CLOUDY    57  54  89 E7        30.12R
HOUSTON HOBBY  MOCLDY    61  57  88 NE6       30.11S
GALVESTON      CLOUDY    66  64  93 E10       30.12R
COLLEGE STAT   CLOUDY    54  51  90 N6        30.11S
CONROE         CLOUDY    57  51  80 SE6       30.14R
HUNTSVILLE     CLOUDY    56  49  77 CALM      30.12S
LUFKIN         CLOUDY    54  45  71 NE3       30.17R
SHREVEPORT     LGT RAIN  46  42  86 N6        30.20R
MONROE         CLOUDY    46  40  79 NE8       30.23R
NATCHEZ MS     MOCLDY    46  39  76 CALM      30.21R
BATON ROUGE    PTCLDY    48  41  76 NE3       30.18R
N.O. INTL ARPT CLOUDY    51  42  71 CALM      30.19F
SLIDELL        CLOUDY    45  41  86 CALM      30.19F
$$

MARINE REPORTS

STATION/POSITION TIME  TEMP    WIND        PRES    VSBY  WAVE
                       AIR SEA DIR/SP/G                  HT/PER
                 (UTC) (F)     (DEG/KT/KT) (MB)    (MI)  (FT/S)
BUOY 30 S HIGH I 0500   66 65  110/ 12/ 16 1018.9F         4/ 5
SEA RIM ST PARK  0500   61     100/  8/ 10 1020.7F
PORT ARTHUR      0500      62  100/  6/  7 1020.5R
SABINE PASS N    0500   61 62  120/ 12/ 14 1020.0F
TEXAS POINT      NOT AVBL
CALCASIEU PASS   0500   60 60  140/  9/ 13   N/A
LK CHARLES BEACH 0500   52 63              1021.2F
MARSH ISLAND     NOT AVBL
FRESH WATER LOCK 0500   58 61  100/ 10/ 14 1020.9S
AMERADA PASS     0500   52 52   70/  3/  4 1021.7F
$$



USA.gov is the U.S. government's official web portal to all federal, state and local government web resources and services.